Regional Weather Roundup
Issued by NWS

Home | Current Version | Previous Version | Graphics & Text | Print | Product List | Glossary On
Versions: 1 2 3 4 5 6 7 8 9 10 11 12 13 14 15 16 17 18 19 20 21 22 23 24 25 26 27 28 29 30 31 32 33 34 35 36 37 38 39 40 41 42 43 44 45 46 47 48 49 50
000
ASUS43 KDMX 261003
RWRIA

WEATHER ROUNDUP FOR IOWA
NATIONAL WEATHER SERVICE DES MOINES IA
500 AM CDT MON SEP 26 2016

NOTE: "FAIR" INDICATES FEW OR NO CLOUDS BELOW 12,000 FEET WITH NO
SIGNIFICANT WEATHER AND/OR OBSTRUCTIONS TO VISIBILITY.

* - THESE STATIONS ARE NOT NWS STATIONS...THUS NOT UNDER NWS
QUALITY CONTROL.  THEY ALSO DO NOT REPORT WEATHER SUCH
AS PRECIPITATION OR FOG.

IAZ001>003-012>014-020>022-031>034-043>046-261100-
   NORTHWEST IOWA

CITY           SKY/WX    TMP DP  RH WIND       PRES   REMARKS
CARROLL *      CLEAR     46  41  81 W8        30.15F
CHEROKEE *     CLEAR     45  39  79 W7        30.16R
DENISON *      CLEAR     45  41  87 SW3       30.16S
LE MARS *      CLEAR     45  37  76 NW5       30.18R
ORANGE CITY *  CLEAR     45  39  81 W6        30.16S
SHELDON *      CLEAR     45  37  76 W8        30.13R
SIOUX CITY     CLEAR     48  38  68 W7        30.19R
SPENCER        CLEAR     44  39  82 W9        30.12R
STORM LAKE *   CLEAR     45  39  81 W10       30.16R
$$

IAZ055>058-069>071-079>083-090>094-261100-
   SOUTHWEST IOWA

CITY           SKY/WX    TMP DP  RH WIND       PRES   REMARKS
ATLANTIC *     CLEAR     46  41  81 S6        30.19S
AUDUBON *      CLEAR     46  39  76 CALM      30.18S
CLARINDA *       N/A     45  43  93 MISG      30.23S
COUNCIL BLFS * CLEAR     48  39  71 W7        30.21S
CRESTON *      CLEAR     45  41  87 W5        30.20S
HARLAN  *      CLEAR     45  41  87 CALM      30.23R
LAMONI         CLEAR     49  43  80 W8        30.19R
RED OAK *      PTCLDY    45  43  93 W3        30.21S
SHENANDOAH *   CLEAR     46  43  87 W5        30.23S
$$

IAZ047>049-059>061-072>074-084-261100-
   CENTRAL IOWA

CITY           SKY/WX    TMP DP  RH WIND       PRES   REMARKS
AMES           CLEAR     48  45  89 W10       30.12S
ANKENY *         N/A    N/A N/A N/A MISG        N/A
BOONE *        CLEAR     48  41  76 W9        30.12S
CHARITON *       N/A     48  43  81 W9        30.16S
DES MOINES     CLEAR     52  42  69 W7        30.14S
GRINNELL*      CLEAR     50  44  80 W8        30.12R
KNOXVILLE *    CLEAR     48  43  81 W8        30.13S
MARSHALLTOWN   CLEAR     49  43  80 W9        30.09R
NEWTON *       CLEAR     48  43  81 W6        30.12S
PELLA *        PTCLDY    53  46  76 W8        30.14S
PERRY *          N/A     48  44  86 W7        30.15F
$$

IAZ004>006-015-016-023>025-035-036-261100-
   NORTH CENTRAL IOWA

CITY           SKY/WX    TMP DP  RH WIND       PRES   REMARKS
ALGONA *       CLEAR     48  39  71 W12       30.09S
CLARION *      CLEAR     48  41  76 W9        30.09R
ESTHERVILLE    CLEAR     48  38  68 W9        30.09R
FORT DODGE *   CLEAR     48  37  66 W10       30.11R
MASON CITY     CLEAR     48  40  73 W10       30.06S
FOREST CITY *    N/A     46  37  71 W10       30.06R
WEBSTER CITY * CLEAR     48  43  81 W9        30.09S
IOWA FALLS *     N/A     48  42  79 W8        30.09S
$$

IAZ007>011-017>019-026>030-037>042-050>054-066-261100-
   NORTHEAST IOWA

CITY           SKY/WX    TMP DP  RH WIND       PRES   REMARKS
CEDAR RAPIDS   CLEAR     50  47  89 W9        30.07R
CHARLES CITY * CLEAR     50  43  76 W8        30.03S
CLINTON *      CLOUDY    53  49  86 W7        30.05R
DECORAH *      CLEAR     50  43  76 W6G12     29.99R
DUBUQUE        CLEAR     50  46  86 SW7       30.02S
MONTICELLO *   CLEAR     52  46  82 W7        30.04R
OELWEIN *      CLEAR     50  45  81 W8        30.04R
WATERLOO       CLEAR     51  43  74 W13       30.04S
$$

IAZ064-065-067-068-078-261100-
   EAST CENTRAL IOWA

CITY           SKY/WX    TMP DP  RH WIND       PRES   REMARKS
DAVENPORT      MOCLDY    53  48  83 W7        30.06R
IOWA CITY      CLEAR     51  47  86 W6        30.10R
MT. PLEASANT * CLEAR     55  50  85 W8        30.12R
MUSCATINE *    CLEAR     54  46  76 W8        30.09R
QUAD CITIES    CLOUDY    58  47  66 W9        30.06R
$$

IAZ062-063-075>077-085>089-095>099-261100-
   SOUTHEAST IOWA

CITY           SKY/WX    TMP DP  RH WIND       PRES   REMARKS
BURLINGTON     PTCLDY    54  51  90 W5        30.10S
FAIRFIELD *    CLEAR     50  45  81 W8        30.12S
FORT MADISON * PTCLDY    54  50  87 W6        30.13R
KEOKUK *       MOCLDY    57  50  77 W8        30.12R
OSKALOOSA *      N/A     47  45  92 W7        30.13S
OTTUMWA        CLEAR     50  44  80 W9        30.13R
WASHINGTON *     N/A    N/A N/A N/A MISG        N/A
$$

ABBREVIATIONS USED IN REMARKS
   TC - TEMPERATURES IN CELSIUS
  WCI - WIND CHILL INDEX
   HX - HEAT INDEX
  VSB - VISIBILITY
$$





USA.gov is the U.S. government's official web portal to all federal, state and local government web resources and services.